Tracking 29892 objects as of 21-Nov-2024
HD Live streaming from Space Station
objects crossing your sky now

STARLINK-30480

Track STARLINK-30480 now!
10-day predictions
STARLINK-30480 is classified as:


NORAD ID: 58069
Int'l Code: 2023-158U
Perigee: 493.9 km
Apogee: 496.4 km
Inclination: 43.0 °
Period: 94.4 minutes
Semi major axis: 6866 km
RCS: Unknown
Launch date: October 13, 2023
Source: United States (US)
Launch site: AIR FORCE EASTERN TEST RANGE (AFETR)
Your satellite tracking list
Your tracking list is empty




NASA's NSSDC Master Catalog

Two Line Element Set (TLE):
1 58069U 23158U   24325.65418141  .00004535  00000-0  18304-3 0  9999
2 58069  43.0084  40.1897 0001752 268.5897  91.4753 15.25924435 62768
Source of the keplerian elements: AFSPC